Voltar ao catálogo

GOES 6 AKM

AtivoMEO
NORAD 14069·ROCKET BODY·🇺🇸 United States

Lançado Apr 28, 1983 de Cape Canaveral Space Force Station

Loading…

Próximas Passagens (próximas 24 horas)

TLE

AtualizadoSource: Space-Track

Época: Sep 14, 2026, 10:23 UTC

1 14069U 83041C   26257.43284804 -.00000225  00000-0  00000-0 0  9991
2 14069  15.5508 320.8321 1684780 120.9400 268.3560  0.84337131 40582

Acompanhe GOES 6 AKM em tempo real com AllMySat

Download on the App Store